VIR4C KJFK-EGLL

Flight info

Callsign VIR4C
Flight time N/A
Altitude 37000
Route BETTE DCT ACK DCT BRADD N427A ELSIR/M084F390 NATV GISTI/N0481F390 DCT ENJEX DCT AVZAC DCT INFEC DCT JETZI DCT AMFUL DCT ORZEB/N0402F230 P2 SIRIC
Aircraft A35K/H-SDE2E3GHIJ3J4J5LM1ORWXY/LB1D1

Departure

Time 2026-05-05 23:04
Airport John F. Kennedy International Airport (KJFK)

Arrival

Time N/A
Airport London Heathrow Airport (EGLL)
Time Latitude Longitude Altitude Speed Heading
2026-05-05 22:32 40.64389 -73.77920 28 ft 0 kts 239°
2026-05-05 22:51 40.64392 -73.77913 28 ft 4 kts 239°
2026-05-05 22:51 40.64405 -73.77882 28 ft 4 kts 239°
2026-05-05 22:52 40.64417 -73.77857 26 ft 3 kts 240°
2026-05-05 22:52 40.64427 -73.77825 26 ft 4 kts 263°
2026-05-05 22:52 40.64426 -73.77791 26 ft 4 kts 290°
2026-05-05 22:52 40.64414 -73.77760 26 ft 3 kts 301°
2026-05-05 22:53 40.64400 -73.77732 26 ft 4 kts 308°
2026-05-05 22:53 40.64382 -73.77706 27 ft 4 kts 320°
2026-05-05 22:53 40.64360 -73.77685 26 ft 4 kts 330°
2026-05-05 22:53 40.64341 -73.77671 26 ft 4 kts 331°
2026-05-05 22:54 40.64317 -73.77654 27 ft 4 kts 331°
2026-05-05 22:54 40.64294 -73.77636 27 ft 4 kts 330°
2026-05-05 22:54 40.64270 -73.77619 27 ft 4 kts 330°
2026-05-05 22:54 40.64247 -73.77602 27 ft 4 kts 330°
2026-05-05 22:55 40.64223 -73.77584 27 ft 4 kts 330°
2026-05-05 22:55 40.64199 -73.77567 26 ft 4 kts 330°
2026-05-05 22:55 40.64176 -73.77550 27 ft 4 kts 330°
2026-05-05 22:55 40.64152 -73.77532 27 ft 4 kts 330°
2026-05-05 22:56 40.64132 -73.77517 27 ft 3 kts 331°
2026-05-05 22:56 40.64107 -73.77505 27 ft 4 kts 359°
2026-05-05 22:56 40.64082 -73.77511 28 ft 4 kts 25°
2026-05-05 22:56 40.64061 -73.77526 27 ft 4 kts 31°
2026-05-05 22:57 40.64039 -73.77544 27 ft 2 kts 31°
2026-05-05 22:57 40.64037 -73.77545 27 ft 0 kts 31°
2026-05-05 22:59 40.64047 -73.77537 26 ft 4 kts 30°
2026-05-05 22:59 40.64076 -73.77513 28 ft 6 kts 44°
2026-05-05 22:59 40.64078 -73.77453 26 ft 13 kts 118°
2026-05-05 22:59 40.64023 -73.77330 28 ft 6 kts 94°
2026-05-05 23:00 40.64124 -73.77225 31 ft 15 kts 31°
2026-05-05 23:00 40.64219 -73.77150 30 ft 17 kts 31°
2026-05-05 23:00 40.64331 -73.77062 29 ft 20 kts 31°
2026-05-05 23:01 40.64467 -73.76992 31 ft 23 kts
2026-05-05 23:01 40.64613 -73.76907 30 ft 24 kts 31°
2026-05-05 23:01 40.64762 -73.76791 27 ft 25 kts 30°
2026-05-05 23:01 40.64910 -73.76673 27 ft 25 kts 31°
2026-05-05 23:02 40.65065 -73.76552 27 ft 26 kts 30°
2026-05-05 23:02 40.65089 -73.76435 28 ft 8 kts 127°
2026-05-05 23:02 40.65052 -73.76369 28 ft 10 kts 136°
2026-05-05 23:02 40.65002 -73.76372 28 ft 7 kts 212°
2026-05-05 23:03 40.64988 -73.76382 28 ft 0 kts 210°
2026-05-05 23:03 40.64896 -73.76453 28 ft 49 kts 211°
2026-05-05 23:03 40.64394 -73.76848 29 ft 117 kts 211°
2026-05-05 23:03 40.63526 -73.77526 33 ft 172 kts 210°
2026-05-05 23:04 40.62425 -73.78386 452 ft 189 kts 211°
2026-05-05 23:04 40.61305 -73.79253 1356 ft 181 kts 211°
2026-05-05 23:04 40.60189 -73.80114 1951 ft 196 kts 211°
2026-05-05 23:04 40.58935 -73.81084 2208 ft 222 kts 211°
2026-05-05 23:05 40.57540 -73.82164 2609 ft 244 kts 211°
2026-05-05 23:05 40.56042 -73.83325 3212 ft 254 kts 211°
2026-05-05 23:05 40.54410 -73.84269 3969 ft 259 kts 195°
2026-05-05 23:05 40.52609 -73.84446 4699 ft 264 kts 171°
2026-05-05 23:06 40.50925 -73.83503 5429 ft 268 kts 141°
2026-05-05 23:06 40.49844 -73.81520 6191 ft 272 kts 109°
2026-05-05 23:06 40.49528 -73.79072 6988 ft 274 kts 93°
2026-05-05 23:06 40.49300 -73.76563 7755 ft 279 kts 92°
2026-05-05 23:07 40.49369 -73.74048 8586 ft 281 kts 85°
2026-05-05 23:07 40.49563 -73.71475 9421 ft 285 kts 83°
2026-05-05 23:07 40.49818 -73.68882 10230 ft 288 kts 82°
2026-05-05 23:07 40.50100 -73.66199 10713 ft 307 kts 82°
2026-05-05 23:08 40.50399 -73.63321 11037 ft 329 kts 82°
2026-05-05 23:08 40.50704 -73.60254 11388 ft 347 kts 83°
2026-05-05 23:08 40.51029 -73.57060 11997 ft 356 kts 80°
2026-05-05 23:08 40.51393 -73.53821 12732 ft 361 kts 80°
2026-05-05 23:09 40.51759 -73.50526 13469 ft 366 kts 81°
2026-05-05 23:09 40.52107 -73.47194 14186 ft 370 kts 81°
2026-05-05 23:09 40.52437 -73.43817 14887 ft 374 kts 82°
2026-05-05 23:09 40.52752 -73.40410 15577 ft 378 kts 82°
2026-05-05 23:10 40.53061 -73.36959 16239 ft 382 kts 82°
2026-05-05 23:10 40.53368 -73.33476 16905 ft 386 kts 82°
2026-05-05 23:10 40.53676 -73.29950 17560 ft 390 kts 82°
2026-05-05 23:10 40.53986 -73.26396 18219 ft 394 kts 82°
2026-05-05 23:11 40.54299 -73.22806 18875 ft 397 kts 82°
2026-05-05 23:11 40.54615 -73.19177 19535 ft 401 kts 82°
2026-05-05 23:11 40.54934 -73.15518 20178 ft 405 kts 82°
2026-05-05 23:11 40.55256 -73.11819 20793 ft 409 kts 82°
2026-05-05 23:12 40.55579 -73.08085 21409 ft 413 kts 82°
2026-05-05 23:12 40.55912 -73.04321 22012 ft 416 kts 81°
2026-05-05 23:12 40.56480 -73.00576 22600 ft 420 kts 73°
2026-05-05 23:12 40.57289 -72.96871 23145 ft 424 kts 71°
2026-05-05 23:13 40.58188 -72.93165 23726 ft 427 kts 70°
2026-05-05 23:13 40.59129 -72.89487 24256 ft 430 kts 70°
2026-05-05 23:13 40.60103 -72.85752 24793 ft 434 kts 69°
2026-05-05 23:13 40.61090 -72.81977 25312 ft 437 kts 70°
2026-05-05 23:14 40.62078 -72.78177 25832 ft 441 kts 70°
2026-05-05 23:14 40.63068 -72.74339 26308 ft 444 kts 70°
2026-05-05 23:14 40.64056 -72.70482 26797 ft 447 kts 70°
2026-05-05 23:14 40.65049 -72.66582 27272 ft 451 kts 70°
2026-05-05 23:15 40.66047 -72.62652 27719 ft 454 kts 70°
2026-05-05 23:15 40.67050 -72.58695 28181 ft 457 kts 70°
2026-05-05 23:15 40.68059 -72.54705 28613 ft 460 kts 70°
2026-05-05 23:15 40.69074 -72.50687 29029 ft 463 kts 70°
2026-05-05 23:16 40.70093 -72.46648 29439 ft 466 kts 70°
2026-05-05 23:16 40.71117 -72.42579 29824 ft 469 kts 70°
2026-05-05 23:16 40.72143 -72.38499 30213 ft 472 kts 70°
2026-05-05 23:16 40.73178 -72.34375 30582 ft 474 kts 70°
2026-05-05 23:17 40.74216 -72.30232 30931 ft 477 kts 70°
2026-05-05 23:17 40.75259 -72.26065 31275 ft 480 kts 70°
2026-05-05 23:17 40.76303 -72.21882 31603 ft 482 kts 70°
2026-05-05 23:17 40.77354 -72.17666 31905 ft 484 kts 70°
2026-05-05 23:18 40.78408 -72.13430 32195 ft 487 kts 70°
2026-05-05 23:18 40.79451 -72.09229 32488 ft 489 kts 70°
2026-05-05 23:18 40.80509 -72.04962 32759 ft 491 kts 70°
2026-05-05 23:18 40.81568 -72.00679 33137 ft 490 kts 70°
2026-05-05 23:19 40.82624 -71.96405 33539 ft 489 kts 70°
2026-05-05 23:19 40.83675 -71.92144 33908 ft 488 kts 70°
2026-05-05 23:19 40.84724 -71.87886 34251 ft 487 kts 70°
2026-05-05 23:19 40.85771 -71.83625 34590 ft 487 kts 70°
2026-05-05 23:20 40.86813 -71.79381 34897 ft 486 kts 70°
2026-05-05 23:20 40.87852 -71.75136 35201 ft 486 kts 70°
2026-05-05 23:20 40.88553 -71.72266 35400 ft 485 kts 70°
2026-05-05 23:20 40.89588 -71.68023 35687 ft 485 kts 70°
2026-05-05 23:21 40.90617 -71.63788 35957 ft 484 kts 70°
2026-05-05 23:21 40.91630 -71.59610 36208 ft 484 kts 70°
2026-05-05 23:21 40.92670 -71.55314 36447 ft 484 kts 70°
2026-05-05 23:21 40.93678 -71.51140 36663 ft 484 kts 70°
2026-05-05 23:22 40.94700 -71.46905 36873 ft 484 kts 70°
2026-05-05 23:22 40.95724 -71.42657 36991 ft 486 kts 70°
2026-05-05 23:22 40.97792 -71.34065 36999 ft 491 kts 71°
2026-05-05 23:23 40.99855 -71.25462 37001 ft 490 kts 71°
2026-05-05 23:23 41.01906 -71.16874 37000 ft 490 kts 71°
2026-05-05 23:24 41.03955 -71.08264 37000 ft 490 kts 71°
2026-05-05 23:24 41.05995 -70.99659 37000 ft 490 kts 71°
2026-05-05 23:25 41.08028 -70.91047 37000 ft 490 kts 71°
2026-05-05 23:25 41.10057 -70.82423 37000 ft 490 kts 71°
2026-05-05 23:26 41.12076 -70.73807 37000 ft 490 kts 71°
2026-05-05 23:26 41.14091 -70.65178 37000 ft 490 kts 71°
2026-05-05 23:27 41.16099 -70.56547 37000 ft 490 kts 71°
2026-05-05 23:27 41.18088 -70.47964 37000 ft 490 kts 71°
2026-05-05 23:28 41.20097 -70.39261 37000 ft 490 kts 71°
2026-05-05 23:28 41.22070 -70.30677 37000 ft 490 kts 71°
2026-05-05 23:29 41.24053 -70.22020 37000 ft 490 kts 71°
2026-05-05 23:29 41.26029 -70.13364 37000 ft 490 kts 71°
2026-05-05 23:30 41.28250 -70.04827 37004 ft 488 kts 63°
2026-05-05 23:30 41.31964 -69.97336 36995 ft 486 kts 49°
2026-05-05 23:31 41.36344 -69.90442 36999 ft 489 kts 47°
2026-05-05 23:31 41.40816 -69.83613 37000 ft 489 kts 47°
2026-05-05 23:32 41.45269 -69.76764 37000 ft 489 kts 47°
2026-05-05 23:32 41.49678 -69.69918 37000 ft 489 kts 47°
2026-05-05 23:33 41.54096 -69.63025 37000 ft 489 kts 47°
2026-05-05 23:33 41.58515 -69.56114 37000 ft 489 kts 47°
2026-05-05 23:34 41.62930 -69.49195 37000 ft 489 kts 48°
2026-05-05 23:34 41.67339 -69.42271 37000 ft 489 kts 48°
2026-05-05 23:35 41.71747 -69.35335 37000 ft 489 kts 48°
2026-05-05 23:35 41.76149 -69.28390 37000 ft 489 kts 48°
2026-05-05 23:36 41.80548 -69.21435 37000 ft 489 kts 48°
2026-05-05 23:36 41.84936 -69.14478 37000 ft 489 kts 48°
2026-05-05 23:37 41.89326 -69.07504 37000 ft 489 kts 48°
2026-05-05 23:37 41.93712 -69.00520 37000 ft 489 kts 48°
2026-05-05 23:38 41.98094 -68.93526 37000 ft 489 kts 48°
2026-05-05 23:38 42.02470 -68.86524 37000 ft 489 kts 48°
2026-05-05 23:39 42.06838 -68.79521 37000 ft 489 kts 48°
2026-05-05 23:39 42.11206 -68.72499 37000 ft 489 kts 48°
2026-05-05 23:40 42.15569 -68.65469 37000 ft 489 kts 48°
2026-05-05 23:40 42.19929 -68.58428 37000 ft 489 kts 48°
2026-05-05 23:41 42.24256 -68.51424 37000 ft 489 kts 48°
2026-05-05 23:41 42.28606 -68.44364 37000 ft 489 kts 49°
2026-05-05 23:42 42.32947 -68.37303 37000 ft 489 kts 49°
2026-05-05 23:42 42.37290 -68.30222 37000 ft 489 kts 49°
2026-05-05 23:43 42.41623 -68.23141 37000 ft 489 kts 49°
2026-05-05 23:43 42.45954 -68.16045 37000 ft 489 kts 49°
2026-05-05 23:44 42.50282 -68.08938 37000 ft 489 kts 49°
2026-05-05 23:44 42.54606 -68.01821 37000 ft 489 kts 49°
2026-05-05 23:45 42.58920 -67.94702 37000 ft 489 kts 49°
2026-05-05 23:45 42.63236 -67.87564 37000 ft 489 kts 49°
2026-05-05 23:46 42.67547 -67.80416 37000 ft 489 kts 49°
2026-05-05 23:46 42.71852 -67.73261 37000 ft 489 kts 49°
2026-05-05 23:47 42.76120 -67.66151 37000 ft 489 kts 49°
2026-05-05 23:47 42.80416 -67.58976 37000 ft 489 kts 49°
2026-05-05 23:48 42.84707 -67.51792 37000 ft 489 kts 49°
2026-05-05 23:48 42.88993 -67.44598 37000 ft 489 kts 49°
2026-05-05 23:49 42.93272 -67.37400 37000 ft 489 kts 49°
2026-05-05 23:49 42.97549 -67.30187 37000 ft 489 kts 49°
2026-05-05 23:50 43.01821 -67.22965 37000 ft 489 kts 49°
2026-05-05 23:50 43.06084 -67.15739 37000 ft 489 kts 49°
2026-05-05 23:51 43.10348 -67.08495 37000 ft 489 kts 49°
2026-05-05 23:51 43.14607 -67.01242 37000 ft 489 kts 49°
2026-05-05 23:52 43.18780 -66.93899 37000 ft 489 kts 51°
2026-05-05 23:52 43.22807 -66.86388 37000 ft 489 kts 52°
2026-05-05 23:53 43.26829 -66.78870 37000 ft 489 kts 52°
2026-05-05 23:53 43.30866 -66.71377 37000 ft 489 kts 52°
2026-05-05 23:54 43.34915 -66.63877 37000 ft 489 kts 52°
2026-05-05 23:54 43.38959 -66.56370 37000 ft 489 kts 52°
2026-05-05 23:55 43.43001 -66.48846 37000 ft 489 kts 52°
2026-05-05 23:55 43.47008 -66.41367 37000 ft 488 kts 52°
2026-05-05 23:56 43.51031 -66.33836 37000 ft 488 kts 52°
2026-05-05 23:56 43.55058 -66.26280 37000 ft 488 kts 52°
2026-05-05 23:57 43.59071 -66.18730 37000 ft 488 kts 52°
2026-05-05 23:57 43.63082 -66.11166 37000 ft 488 kts 52°
2026-05-05 23:58 43.67092 -66.03583 37000 ft 488 kts 52°
2026-05-05 23:58 43.71094 -65.95995 37000 ft 488 kts 52°
2026-05-05 23:59 43.75090 -65.88398 37000 ft 488 kts 52°
2026-05-05 23:59 43.79079 -65.80797 37000 ft 488 kts 52°
2026-05-06 00:00 43.83065 -65.73180 37000 ft 489 kts 52°
2026-05-06 00:00 43.87050 -65.65547 37000 ft 489 kts 52°
2026-05-06 00:01 43.91029 -65.57904 37000 ft 489 kts 52°
2026-05-06 00:01 43.94978 -65.50299 37000 ft 489 kts 52°
2026-05-06 00:02 43.98948 -65.42634 37000 ft 489 kts 52°
2026-05-06 00:02 44.02910 -65.34963 37000 ft 489 kts 52°
2026-05-06 00:03 44.06872 -65.27274 37000 ft 489 kts 52°
2026-05-06 00:03 44.10823 -65.19585 37000 ft 489 kts 53°
2026-05-06 00:04 44.14779 -65.11866 37000 ft 489 kts 53°
2026-05-06 00:04 44.18720 -65.04156 37000 ft 489 kts 53°
2026-05-06 00:05 44.24624 -64.92567 37000 ft 489 kts 53°
2026-05-06 00:06 44.28557 -64.84819 37000 ft 489 kts 53°
2026-05-06 00:06 44.32478 -64.77076 37000 ft 489 kts 53°
2026-05-06 00:07 44.36403 -64.69305 37000 ft 489 kts 53°
2026-05-06 00:07 44.40320 -64.61528 37000 ft 489 kts 53°
2026-05-06 00:08 44.43566 -64.55067 37001 ft 489 kts 53°
2026-05-06 00:08 44.47472 -64.47275 37000 ft 489 kts 53°
2026-05-06 00:09 44.51374 -64.39469 37000 ft 489 kts 53°
2026-05-06 00:09 44.55894 -64.30398 37000 ft 489 kts 53°
2026-05-06 00:10 44.59151 -64.23847 37000 ft 488 kts 53°
2026-05-06 00:10 44.63031 -64.16020 37000 ft 489 kts 53°
2026-05-06 00:11 44.66907 -64.08182 37000 ft 489 kts 53°
2026-05-06 00:11 44.70778 -64.00332 37000 ft 489 kts 53°
2026-05-06 00:12 44.74620 -63.92519 37000 ft 489 kts 53°
2026-05-06 00:12 44.78481 -63.84646 37000 ft 489 kts 53°
2026-05-06 00:13 44.82338 -63.76761 37000 ft 489 kts 53°
2026-05-06 00:13 44.86190 -63.68865 37000 ft 489 kts 54°
2026-05-06 00:14 44.90031 -63.60968 37000 ft 488 kts 54°
2026-05-06 00:14 44.93863 -63.53067 37000 ft 488 kts 54°
2026-05-06 00:15 44.97693 -63.45151 37000 ft 488 kts 54°
2026-05-06 00:15 45.01518 -63.37220 37000 ft 488 kts 54°
2026-05-06 00:16 45.05339 -63.29278 37000 ft 488 kts 54°
2026-05-06 00:16 45.09155 -63.21325 37000 ft 489 kts 54°
2026-05-06 00:17 45.12966 -63.13358 37000 ft 489 kts 54°
2026-05-06 00:17 45.16774 -63.05376 37000 ft 489 kts 54°
2026-05-06 00:18 45.20549 -62.97441 37000 ft 488 kts 54°
2026-05-06 00:18 45.24342 -62.89446 37000 ft 488 kts 54°
2026-05-06 00:19 45.28128 -62.81443 36999 ft 489 kts 54°
2026-05-06 00:19 45.31914 -62.73418 37000 ft 489 kts 54°
2026-05-06 00:20 45.35698 -62.65375 37000 ft 489 kts 54°
2026-05-06 00:20 45.39474 -62.57324 37000 ft 489 kts 54°
2026-05-06 00:21 45.43245 -62.49263 37000 ft 489 kts 54°
2026-05-06 00:21 45.47004 -62.41204 37000 ft 489 kts 54°
2026-05-06 00:22 45.50770 -62.33107 37000 ft 489 kts 54°
2026-05-06 00:22 45.54525 -62.25011 37000 ft 489 kts 54°
2026-05-06 00:23 45.58274 -62.16905 37000 ft 489 kts 55°
2026-05-06 00:23 45.62017 -62.08788 37000 ft 489 kts 55°
2026-05-06 00:24 45.65753 -62.00662 37000 ft 489 kts 55°
2026-05-06 00:24 45.69479 -61.92537 37000 ft 489 kts 55°
2026-05-06 00:25 45.73195 -61.84407 37000 ft 488 kts 55°
2026-05-06 00:25 45.76901 -61.76277 37000 ft 488 kts 55°
2026-05-06 00:26 45.80602 -61.68135 37000 ft 488 kts 55°
2026-05-06 00:26 45.84298 -61.59980 37000 ft 488 kts 55°
2026-05-06 00:27 45.87987 -61.51817 37000 ft 488 kts 55°
2026-05-06 00:27 45.91671 -61.43640 37000 ft 488 kts 55°
2026-05-06 00:28 45.95356 -61.35439 37000 ft 489 kts 55°
2026-05-06 00:28 45.99035 -61.27228 37000 ft 489 kts 55°
2026-05-06 00:29 46.02686 -61.19053 37000 ft 489 kts 56°
2026-05-06 00:29 46.06356 -61.10814 37001 ft 489 kts 56°
2026-05-06 00:30 46.10020 -61.02562 37000 ft 489 kts 56°
2026-05-06 00:30 46.13682 -60.94292 37001 ft 489 kts 56°
2026-05-06 00:31 46.17328 -60.86033 36999 ft 488 kts 56°
2026-05-06 00:31 46.20976 -60.77743 37000 ft 490 kts 56°
2026-05-06 00:32 46.24624 -60.69431 37000 ft 489 kts 56°
2026-05-06 00:32 46.28259 -60.61124 37000 ft 489 kts 56°
2026-05-06 00:33 46.31886 -60.52809 37001 ft 489 kts 56°
2026-05-06 00:33 46.35498 -60.44503 37000 ft 488 kts 56°
2026-05-06 00:34 46.39104 -60.36186 37000 ft 487 kts 56°
2026-05-06 00:34 46.42704 -60.27858 37000 ft 487 kts 56°
2026-05-06 00:35 46.46298 -60.19520 37000 ft 487 kts 56°
2026-05-06 00:35 46.49884 -60.11177 37000 ft 487 kts 56°
2026-05-06 00:36 46.53467 -60.02814 37000 ft 487 kts 56°
2026-05-06 00:36 46.57039 -59.94450 37000 ft 487 kts 56°
2026-05-06 00:37 46.60608 -59.86069 37000 ft 487 kts 56°